Location: Newark
(42.9858°N, 0.6717°E)
Time: 22:37:00
(UTC+00:00)

S-56A Canister/Altair - Pass Details

Date: 20 November 2019
Orbit: 633 x 2499 km, 38.9° (Epoch: 10 December)

Event Time Altitude Azimuth Distance (km) Brightness Sun altitude
Rises 18:55:17 0° 264° (W) 4,800 12.9 -26.4°
Reaches altitude 10° 18:59:00 10° 262° (W) 3,507 11.9 -27.0°
Maximum altitude 19:07:11 63° 184° (S) 1,133 8.2 -28.5°
Enters shadow 19:07:46 60° 158° (SSE) 1,129 8.1 -28.6°
Drops below altitude 10° 19:12:42 10° 104° (ESE) 2,392 - -29.6°
Sets 19:14:49 0° 101° (E) 3,184 - -29.9°
